Flight Track Log - Related Links

Times and Time Zones

All times are in EDT time to prevent confusion due to time zone crossing. See the ASQ5941 flight status page for this flight to view local times or setup timezone preferences in your user account.

Time Position Orientation Groundspeed Altitude Reporting Facility
EDT Latitude Longitude Course Direction KTS MPH feet Rate Location/Type
Fri 03:02:55 PM 41.9333 -87.9167 74° East 159 183 2,400  Level Chicago TRACON
Fri 03:02:55 PM 41.9333 -87.9167 74° East 159 183 2,400 1,394 Level Chicago TRACON
Fri 03:04:34 PM 41.8831 -87.8139 123° Southeast 258 297 4,700 1,394 Climbing Chicago Center
Fri 03:04:34 PM 41.8831 -87.8139 123° Southeast 258 297 4,700 290 Level Chicago Center
Fri 03:05:36 PM 41.8792 -87.7142 93° East 265 305 5,000 290 Climbing Chicago Center
Fri 03:05:36 PM 41.8792 -87.7142 93° East 265 305 5,000  Level Chicago Center
Fri 03:06:00 PM 41.9804 -87.3205 90° East  Level Estimated
Fri 03:06:00 PM 41.9804 -87.3205 90° East  Level Estimated
Fri 03:06:38 PM 41.9072 -87.6197 68° East 268 308 5,000  Level Chicago Center
Fri 03:06:38 PM 41.9072 -87.6197 68° East 268 308 5,000 2,323 Level Chicago Center
Fri 03:07:00 PM 41.9796 -87.1740 90° East  Level Estimated
Fri 03:07:00 PM 41.9796 -87.1740 90° East  Level Estimated
Fri 03:07:40 PM 41.9406 -87.5267 64° Northeast 273 314 7,400  Level Chicago Center
Fri 03:07:40 PM 41.9406 -87.5267 64° Northeast 273 314 7,400 1,742 Level Chicago Center
Fri 03:08:00 PM 42.0101 -87.0332 74° East  Level FlightAware Approximate
Fri 03:08:00 PM 42.0101 -87.0332 74° East  Level FlightAware Approximate
Fri 03:08:42 PM 41.9761 -87.4319 63° Northeast 285 328 9,200  Level Chicago Center
Fri 03:08:42 PM 41.9761 -87.4319 63° Northeast 285 328 9,200 2,226 Level Chicago Center
Fri 03:09:44 PM 42.0203 -87.3122 64° Northeast 298 343 11,500 2,226 Climbing Chicago Center
Fri 03:09:44 PM 42.0203 -87.3122 64° Northeast 298 343 11,500 1,619 Level Chicago Center
Fri 03:10:47 PM 42.0575 -87.2103 64° Northeast 305 351 13,200 1,619 Climbing Chicago Center
Fri 03:10:47 PM 42.0575 -87.2103 64° Northeast 305 351 13,200 581 Level Chicago Center
Fri 03:11:49 PM 42.0992 -87.0972 64° Northeast 343 395 13,800 581 Climbing Chicago Center
Fri 03:11:49 PM 42.0992 -87.0972 64° Northeast 343 395 13,800 1,065 Level Chicago Center
Fri 03:12:51 PM 42.1150 -86.9633 81° East 374 430 14,900 1,065 Climbing Chicago Center
Fri 03:12:51 PM 42.1150 -86.9633 81° East 374 430 14,900 1,258 Level Chicago Center
Fri 03:13:53 PM 42.1211 -86.8231 87° East 377 434 16,200 1,258 Climbing Chicago Center
Fri 03:13:53 PM 42.1211 -86.8231 87° East 377 434 16,200 1,258 Level Chicago Center
Fri 03:14:55 PM 42.1261 -86.6631 88° East 375 432 17,500 1,258 Climbing Chicago Center
Fri 03:14:55 PM 42.1261 -86.6631 88° East 375 432 17,500 677 Level Chicago Center
Fri 03:15:57 PM 42.1308 -86.5181 87° East 385 443 18,200 677 Climbing Chicago Center
Fri 03:15:57 PM 42.1308 -86.5181 87° East 385 443 18,200 774 Level Chicago Center
Fri 03:16:59 PM 42.1356 -86.3725 87° East 390 449 19,000 774 Climbing Chicago Center
Fri 03:16:59 PM 42.1356 -86.3725 87° East 390 449 19,000 871 Level Chicago Center
Fri 03:18:01 PM 42.1406 -86.2203 87° East 403 464 19,900 871 Climbing Chicago Center
Fri 03:18:01 PM 42.1406 -86.2203 87° East 403 464 19,900 774 Level Chicago Center
Fri 03:19:03 PM 42.1433 -86.0664 89° East 410 472 20,700 774 Climbing Chicago Center
Fri 03:19:03 PM 42.1433 -86.0664 89° East 410 472 20,700 968 Level Chicago Center
Fri 03:20:05 PM 42.1422 -85.8922 90° East 415 478 21,700 968 Climbing Chicago Center
Fri 03:20:05 PM 42.1422 -85.8922 90° East 415 478 21,700 1,238 Level Chicago Center
Fri 03:21:08 PM 42.1292 -85.7383 96° East 414 476 23,000 1,238 Climbing Chicago Center
Fri 03:21:08 PM 42.1292 -85.7383 96° East 414 476 23,000 1,161 Level Chicago Center
Fri 03:22:10 PM 42.1050 -85.5881 102° East 412 474 24,200 1,161 Climbing Chicago Center
Fri 03:22:10 PM 42.1050 -85.5881 102° East 412 474 24,200 1,161 Level Chicago Center
Fri 03:23:12 PM 42.0825 -85.4400 102° East 408 470 25,400 1,161 Climbing Chicago Center
Fri 03:23:12 PM 42.0825 -85.4400 102° East 408 470 25,400 1,355 Level Chicago Center
Fri 03:24:14 PM 42.0569 -85.2622 101° East 405 466 26,800 1,355 Climbing Chicago Center
Fri 03:24:14 PM 42.0569 -85.2622 101° East 405 466 26,800 1,161 Level Chicago Center
Fri 03:25:16 PM 42.0503 -85.1133 93° East 398 458 28,000 1,161 Climbing Chicago Center
Fri 03:25:16 PM 42.0503 -85.1133 93° East 398 458 28,000 968 Level Chicago Center
Fri 03:26:18 PM 42.0517 -84.9650 89° East 396 456 29,000 968 Climbing Chicago Center
Fri 03:26:18 PM 42.0517 -84.9650 89° East 396 456 29,000 871 Level Chicago Center
Fri 03:27:20 PM 42.0528 -84.8153 89° East 400 460 29,900 871 Climbing Chicago Center
Fri 03:27:20 PM 42.0528 -84.8153 89° East 400 460 29,900 774 Level Chicago Center
Fri 03:28:22 PM 42.0525 -84.6619 90° East 408 470 30,700 774 Climbing Chicago Center
Fri 03:28:22 PM 42.0525 -84.6619 90° East 408 470 30,700 938 Level Chicago Center
Fri 03:29:26 PM 42.0531 -84.4747 90° East 416 479 31,700 938 Climbing Chicago Center
Fri 03:29:26 PM 42.0531 -84.4747 90° East 416 479 31,700 900 Level Chicago Center
Fri 03:30:26 PM 42.0528 -84.3178 90° East 420 483 32,600 900 Climbing Chicago Center
Fri 03:30:26 PM 42.0528 -84.3178 90° East 420 483 32,600 1,065 Level Chicago Center
Fri 03:31:28 PM 42.0517 -84.1589 90° East 425 489 33,700 1,065 Climbing Chicago Center
Fri 03:31:28 PM 42.0517 -84.1589 90° East 425 489 33,700 290 Level Chicago Center
Fri 03:32:30 PM 42.0514 -84.0017 90° East 422 486 34,000 290 Climbing Chicago Center
Fri 03:32:30 PM 42.0514 -84.0017 90° East 422 486 34,000 286 Level Chicago Center
Fri 03:33:33 PM 42.0517 -83.8361 90° East 439 505 34,300 286 Climbing Chicago Center
Fri 03:33:33 PM 42.0517 -83.8361 90° East 439 505 34,300 677 Level Chicago Center
Fri 03:34:35 PM 42.0500 -83.6692 91° East 448 516 35,000 677 Climbing Chicago Center
Fri 03:34:35 PM 42.0500 -83.6692 91° East 448 516 35,000  Level Chicago Center
Fri 03:35:51 PM 42.0453 -83.4408 92° East 443 510 35,000  Level Cleveland Center
Fri 03:35:51 PM 42.0453 -83.4408 92° East 443 510 35,000  Level Cleveland Center
Fri 03:36:51 PM 42.0453 -83.2731 90° East 450 518 35,000  Level Cleveland Center
Fri 03:36:51 PM 42.0453 -83.2731 90° East 450 518 35,000  Level Cleveland Center
Fri 03:37:51 PM 42.0411 -83.0828 92° East 450 518 35,000  Level Cleveland Center
Fri 03:37:51 PM 42.0411 -83.0828 92° East 450 518 35,000  Level Cleveland Center
Fri 03:38:51 PM 42.0406 -82.9178 90° East 450 518 35,000  Level Cleveland Center
Fri 03:38:51 PM 42.0406 -82.9178 90° East 450 518 35,000  Level Cleveland Center
Fri 03:39:51 PM 42.0394 -82.7528 90° East 445 512 35,000  Level Cleveland Center
Fri 03:39:51 PM 42.0394 -82.7528 90° East 445 512 35,000  Level Cleveland Center
Fri 03:40:51 PM 42.0361 -82.5878 92° East 440 506 35,000  Level Cleveland Center
Fri 03:40:51 PM 42.0361 -82.5878 92° East 440 506 35,000  Level Cleveland Center
Fri 03:41:51 PM 42.0306 -82.4225 93° East 440 506 35,000  Level Cleveland Center
Fri 03:41:51 PM 42.0306 -82.4225 93° East 440 506 35,000  Level Cleveland Center
Fri 03:42:51 PM 42.0269 -82.2547 92° East 445 512 35,000  Level Cleveland Center
Fri 03:42:51 PM 42.0269 -82.2547 92° East 445 512 35,000  Level Cleveland Center
Fri 03:43:51 PM 42.0272 -82.0842 90° East 445 512 35,000  Level Cleveland Center
Fri 03:48:51 PM 42.0081 -81.2650 91° East 445 512 35,000  Level Cleveland Center
Fri 03:49:51 PM 42.0025 -81.1000 93° East 439 505 35,000  Level Cleveland Center
Fri 03:50:51 PM 41.9989 -80.9353 92° East 439 505 35,000  Level Cleveland Center
Fri 03:51:51 PM 41.9931 -80.7703 93° East 444 511 35,000  Level Cleveland Center
Fri 03:52:51 PM 41.9892 -80.5886 92° East 444 511 35,000  Level Cleveland Center
Fri 03:53:51 PM 41.9828 -80.4211 93° East 439 505 35,000  Level Cleveland Center
Fri 03:54:51 PM 41.9761 -80.2564 93° East 444 511 35,000  Level Cleveland Center
Fri 03:55:51 PM 41.9694 -80.0917 93° East 438 504 35,000  Level Cleveland Center
Fri 03:56:51 PM 41.9644 -79.9436 93° East 439 505 35,000 -200 Level Cleveland Center
Fri 03:57:51 PM 41.9592 -79.7733 92° East 439 505 34,600 -500 Descending Cleveland Center
Fri 03:58:51 PM 41.9539 -79.6089 92° East 444 511 34,000 -300 Descending Cleveland Center
Fri 03:59:51 PM 41.9439 -79.4442 95° East 444 511 34,000 50 Level Cleveland Center
Fri 04:00:51 PM 41.9383 -79.2964 93° East 444 511 34,100  Climbing Cleveland Center
Fri 04:01:51 PM 41.9294 -79.0956 93° East 444 511 34,000 -500 Descending Cleveland Center
Fri 04:02:51 PM 41.9211 -78.9311 94° East 444 511 33,100 -1,250 Descending Cleveland Center
Fri 04:03:51 PM 41.9144 -78.7694 93° East 444 511 31,500 -1,550 Descending Cleveland Center
Fri 04:04:51 PM 41.9056 -78.6078 94° East 439 505 30,000 -1,450 Descending Cleveland Center
Fri 04:05:51 PM 41.8964 -78.4408 94° East 444 511 28,600 -1,150 Descending Cleveland Center
Fri 04:06:51 PM 41.8889 -78.2708 93° East 449 517 27,700 -1,050 Descending Cleveland Center
Fri 04:07:51 PM 41.8789 -78.0983 94° East 454 522 26,500 -1,250 Descending Cleveland Center
Fri 04:08:51 PM 41.8669 -77.9314 95° East 459 528 25,200 -1,300 Descending Cleveland Center
Fri 04:09:51 PM 41.8422 -77.7681 101° East 459 528 23,900 -1,048 Descending Cleveland Center
Fri 04:10:57 PM 41.8014 -77.6131 109° East 472 543 23,000 -429 Descending New York Center
Fri 04:11:57 PM 41.7619 -77.4644 110° East 447 514 23,000 -550 Level New York Center
Fri 04:12:57 PM 41.7153 -77.2928 110° East 435 501 21,900 -1,350 Descending New York Center
Fri 04:13:57 PM 41.6736 -77.1389 110° East 435 501 20,300 -1,600 Descending New York Center
Fri 04:14:57 PM 41.6333 -76.9906 110° East 435 501 18,700 -1,750 Descending New York Center
Fri 04:15:57 PM 41.5947 -76.8511 110° East 419 482 16,800 -2,150 Descending New York Center
Fri 04:16:57 PM 41.5581 -76.7147 110° East 404 465 14,400 -2,350 Descending New York Center
Fri 04:17:57 PM 41.5244 -76.5925 110° East 391 450 12,100 -2,250 Descending New York Center
Fri 04:18:57 PM 41.4892 -76.4594 109° East 361 415 9,900 -1,250 Descending New York Center
Fri 04:19:57 PM 41.4608 -76.3572 110° East 315 362 9,600 -400 Descending New York Center
Fri 04:20:57 PM 41.4339 -76.2636 111° Southeast 294 338 9,100 -850 Descending New York Center
Fri 04:21:57 PM 41.4089 -76.1758 111° Southeast 279 321 7,900 -1,350 Descending New York Center
Fri 04:22:57 PM 41.3644 -76.0978 127° Southeast 273 314 6,400 -1,450 Descending New York Center
Fri 04:23:57 PM 41.3003 -76.0428 147° Southeast 256 295 5,000 -1,200 Descending New York Center
Fri 04:24:57 PM 41.2572 -75.9789 132° Southeast 242 278 4,000 -450 Descending New York Center
Fri 04:25:57 PM 41.2292 -75.9050 117° Southeast 236 272 4,100 50 Climbing New York Center
Fri 04:26:57 PM 41.2011 -75.8339 118° Southeast 236 272 4,100 -446 Level New York Center
Fri 04:27:58 PM 41.2403 -75.7900 40° Northeast 142 163 3,200 -900 Descending New York Center
Fri 04:28:57 PM 41.2783 -75.7761 15° North 135 155 2,300 -857 Descending New York Center
Fri 04:29:57 PM 41.3111 -75.7456 35° Northeast 135 155 1,500 -400 Descending New York Center
Fri 04:30:57 PM 41.3153 -75.7458 357° North 124 143 1,500 -198 Level New York Center
Fri 04:31:58 PM 41.3431 -75.7258 28° Northeast 86 99 1,100 -393 Descending New York Center

Login

Don't have an account? Register now (free) for customized features, flight alerts, and more!